SUPERBIRD 8

Last updated on Thu Mar 10 2022 00:02:39 GMT+0000 (Coordinated Universal Time)

1 43271U 18033A 22068.49886083 -.00000096 00000+0 00000+0 0 9990 2 43271 0.0462 263.9183 0001072 66.5515 178.2560 1.00271669 14401
UTC large
Height (km)
Speed (km/s)
/
Latitude / Longitude
Inclination (degrees)
Orbital Period (minutes)
Azimuth
Elevation
Range (km)
Doppler Factor

Next 0 passes for location: London (51.5072 / 0.1276)

Sorry there are no passes over London.